Montauk, NY
on Friday, December 8, 2017

Friday
       
Previous Day Next Day
Daily Summary
 ActualAverage (KHTO)Record (KHTO)
Temperature
Mean Temperature °F °C °F °C  
Max Temperature 44°F 7°C 44°F 6°C 63°F 17°C (1953)
Min Temperature 39°F 4°C 30°F -1°C 14°F -10°C (1934)
Degree Days
Heating Degree Days 24    
Moisture
Dew Point 25°F -4°C   
Average Humidity 53    
Maximum Humidity 58    
Minimum Humidity 47    
Precipitation
Precipitation 0.00 in / 0.00 cm in / cm in / cm ()
Wind
Wind Speed 8 mph / 13 km/h   
Max Wind Speed 13 mph / 21 km/h   
Max Gust Speed 25 mph / 40 km/h   
Averages and records for this station are not official NWS values.
Key: T is trace of precipitation, MM is missing value
Source: NWS Daily Summary
Seasonal Weather Averages
Time(EST)TemperatureDew PointHumidity Pressure Visibility Wind DirectionWind SpeedGust SpeedPrecipitationEvents Conditions
12:54 AM 44.1°F 6.7°C 28.0°F -2.2°C 53% 30.01 in / 1016.2 hPa - West 12.7 mph / 20.4 km/h 23.0 mph / 37.0 km/h N/A   Unknown
1:54 AM 43.0°F 6.1°C 28.9°F -1.7°C 58% 30.02 in / 1016.6 hPa - West 9.2 mph / 14.8 km/h 16.1 mph / 25.9 km/h N/A   Unknown
2:54 AM 42.1°F 5.6°C 28.0°F -2.2°C 58% 30.02 in / 1016.6 hPa - West 10.4 mph / 16.7 km/h 19.6 mph / 31.5 km/h N/A   Unknown
3:54 AM 42.1°F 5.6°C 23.0°F -5.0°C 47% 30.03 in / 1016.9 hPa - West 12.7 mph / 20.4 km/h 25.3 mph / 40.7 km/h N/A   Unknown
4:54 AM 42.1°F 5.6°C 23.0°F -5.0°C 47% 30.05 in / 1017.5 hPa - West 11.5 mph / 18.5 km/h 18.4 mph / 29.6 km/h N/A   Unknown
5:54 AM 41.0°F 5.0°C 26.1°F -3.3°C 55% 30.05 in / 1017.5 hPa - West 8.1 mph / 13.0 km/h - N/A   Unknown
6:54 AM 39.9°F 4.4°C 26.1°F -3.3°C 58% 30.05 in / 1017.5 hPa - WNW 5.8 mph / 9.3 km/h - N/A   Unknown
7:54 AM 39.9°F 4.4°C 26.1°F -3.3°C 58% 30.07 in / 1018.3 hPa - Variable 6.9 mph / 11.1 km/h - N/A   Unknown
8:54 AM 39.9°F 4.4°C 24.1°F -4.4°C 53% 30.07 in / 1018.3 hPa - West 4.6 mph / 7.4 km/h - N/A   Unknown
9:54 AM 39.9°F 4.4°C 25.0°F -3.9°C 55% 30.10 in / 1019.2 hPa - West 5.8 mph / 9.3 km/h - N/A   Unknown
10:54 AM 41.0°F 5.0°C 24.1°F -4.4°C 51% 30.07 in / 1018.3 hPa - West 8.1 mph / 13.0 km/h - N/A   Unknown
11:54 AM 41.0°F 5.0°C 24.1°F -4.4°C 51% 30.05 in / 1017.6 hPa - West 6.9 mph / 11.1 km/h - N/A   Unknown
12:54 PM 41.0°F 5.0°C 23.0°F -5.0°C 49% 30.04 in / 1017.3 hPa - West 8.1 mph / 13.0 km/h - N/A   Unknown
1:54 PM 41.0°F 5.0°C 24.1°F -4.4°C 51% 30.04 in / 1017.2 hPa - Variable 5.8 mph / 9.3 km/h - N/A   Unknown
2:54 PM 39.9°F 4.4°C 24.1°F -4.4°C 53% 30.04 in / 1017.1 hPa - West 6.9 mph / 11.1 km/h - N/A   Unknown
3:54 PM 39.9°F 4.4°C 21.9°F -5.6°C 49% 30.04 in / 1017.1 hPa - West 4.6 mph / 7.4 km/h - N/A   Unknown
4:54 PM 39.9°F 4.4°C 24.1°F -4.4°C 53% 30.04 in / 1017.0 hPa - Calm Calm - N/A   Unknown
5:54 PM 39.9°F 4.4°C 24.1°F -4.4°C 53% 30.02 in / 1016.6 hPa - Calm Calm - N/A   Unknown
6:54 PM 41.0°F 5.0°C 25.0°F -3.9°C 53% 30.01 in / 1016.2 hPa - Calm Calm - N/A   Unknown
7:54 PM 41.0°F 5.0°C 24.1°F -4.4°C 51% 30.01 in / 1016.0 hPa - WSW 3.5 mph / 5.6 km/h - N/A   Unknown
8:54 PM 41.0°F 5.0°C 21.9°F -5.6°C 47% 30.00 in / 1015.7 hPa - West 5.8 mph / 9.3 km/h - N/A   Unknown